TimeMDT,TemperatureF,Dew PointF,Humidity,Sea Level PressureIn,VisibilityMPH,Wind Direction,Wind SpeedMPH,Gust SpeedMPH,PrecipitationIn,Events,Conditions,WindDirDegrees,DateUTC
12:16 AM,44.6,8.6,23,30.39,7.0,North,-9999.0,-,N/A,,Clear,0,2013-06-24 06:16:00
12:36 AM,44.6,8.6,23,30.38,7.0,North,-9999.0,-,N/A,,Clear,0,2013-06-24 06:36:00
12:56 AM,44.6,8.6,23,30.38,10.0,North,-9999.0,-,N/A,,Clear,0,2013-06-24 06:56:00
1:16 AM,44.6,8.6,23,30.38,10.0,North,-9999.0,-,N/A,,Clear,0,2013-06-24 07:16:00
1:36 AM,44.6,8.6,23,30.37,7.0,North,-9999.0,-,N/A,,Clear,0,2013-06-24 07:36:00
1:56 AM,42.8,8.6,25,30.37,7.0,North,-9999.0,-,N/A,,Clear,0,2013-06-24 07:56:00
2:16 AM,42.8,6.8,23,30.37,7.0,North,-9999.0,-,N/A,,Clear,0,2013-06-24 08:16:00
2:36 AM,42.8,6.8,23,30.38,7.0,North,-9999.0,-,N/A,,Clear,0,2013-06-24 08:36:00
2:56 AM,41.0,8.6,26,30.38,10.0,North,-9999.0,-,N/A,,Clear,0,2013-06-24 08:56:00
3:16 AM,41.0,8.6,26,30.38,7.0,North,-9999.0,-,N/A,,Clear,0,2013-06-24 09:16:00
3:36 AM,41.0,8.6,26,30.38,7.0,North,-9999.0,-,N/A,,Clear,0,2013-06-24 09:36:00
3:56 AM,41.0,8.6,26,30.38,7.0,North,-9999.0,-,N/A,,Clear,0,2013-06-24 09:56:00
4:16 AM,41.0,8.6,26,30.38,7.0,North,-9999.0,-,N/A,,Clear,0,2013-06-24 10:16:00
4:36 AM,39.2,8.6,28,30.38,7.0,North,-9999.0,-,N/A,,Clear,0,2013-06-24 10:36:00
4:56 AM,39.2,8.6,28,30.38,5.0,North,-9999.0,-,N/A,,Haze,0,2013-06-24 10:56:00
5:16 AM,37.4,8.6,30,30.38,5.0,North,-9999.0,-,N/A,,Haze,0,2013-06-24 11:16:00
5:36 AM,39.2,8.6,28,30.38,5.0,North,-9999.0,-,N/A,,Haze,0,2013-06-24 11:36:00
5:56 AM,39.2,8.6,28,30.38,4.0,North,-9999.0,-,N/A,,Haze,0,2013-06-24 11:56:00
6:16 AM,39.2,8.6,28,30.38,4.0,North,-9999.0,-,N/A,,Haze,0,2013-06-24 12:16:00
6:36 AM,41.0,8.6,26,30.38,4.0,North,-9999.0,-,N/A,,Haze,0,2013-06-24 12:36:00
6:56 AM,41.0,8.6,26,30.37,5.0,North,-9999.0,-,N/A,,Haze,0,2013-06-24 12:56:00
7:16 AM,41.0,8.6,26,30.37,5.0,North,-9999.0,-,N/A,,Haze,0,2013-06-24 13:16:00
7:36 AM,41.0,8.6,26,30.38,5.0,North,-9999.0,-,N/A,,Haze,0,2013-06-24 13:36:00
7:56 AM,42.8,10.4,27,30.38,5.0,North,-9999.0,-,N/A,,Haze,0,2013-06-24 13:56:00
8:16 AM,44.6,10.4,25,30.38,7.0,North,-9999.0,-,N/A,,Clear,0,2013-06-24 14:16:00
8:36 AM,44.6,10.4,25,30.39,7.0,North,-9999.0,-,N/A,,Clear,0,2013-06-24 14:36:00
8:56 AM,42.8,12.2,29,30.39,10.0,North,-9999.0,-,N/A,,Clear,0,2013-06-24 14:56:00
9:16 AM,42.8,12.2,29,30.39,10.0,North,-9999.0,-,N/A,,Clear,0,2013-06-24 15:16:00
9:36 AM,44.6,14.0,29,30.40,10.0,North,-9999.0,-,N/A,,Clear,0,2013-06-24 15:36:00
9:56 AM,46.4,14.0,27,30.40,10.0,North,-9999.0,-,N/A,,Clear,0,2013-06-24 15:56:00
10:16 AM,46.4,17.6,32,30.40,10.0,North,-9999.0,-,N/A,,Clear,0,2013-06-24 16:16:00
10:36 AM,46.4,19.4,34,30.39,10.0,North,-9999.0,-,N/A,,Clear,0,2013-06-24 16:36:00
10:56 AM,48.2,19.4,32,30.39,7.0,North,-9999.0,-,N/A,,Clear,0,2013-06-24 16:56:00
11:16 AM,48.2,19.4,32,30.40,10.0,North,-9999.0,-,N/A,,Clear,0,2013-06-24 17:16:00
11:36 AM,50.0,21.2,32,30.39,10.0,North,-9999.0,-,N/A,,Clear,0,2013-06-24 17:36:00
11:56 AM,50.0,19.4,30,30.40,10.0,North,-9999.0,-,N/A,,Clear,0,2013-06-24 17:56:00
12:16 PM,50.0,17.6,28,30.41,10.0,North,-9999.0,-,N/A,,Clear,0,2013-06-24 18:16:00
12:36 PM,51.8,15.8,24,30.39,7.0,North,-9999.0,-,N/A,,Clear,0,2013-06-24 18:36:00
12:56 PM,51.8,17.6,26,30.39,10.0,North,-9999.0,-,N/A,,Clear,0,2013-06-24 18:56:00
1:16 PM,51.8,15.8,24,30.38,7.0,North,-9999.0,-,N/A,,Clear,0,2013-06-24 19:16:00
1:36 PM,51.8,14.0,22,30.38,7.0,North,-9999.0,-,N/A,,Clear,0,2013-06-24 19:36:00
1:56 PM,53.6,14.0,21,30.38,7.0,North,-9999.0,-,N/A,,Clear,0,2013-06-24 19:56:00
2:16 PM,53.6,12.2,19,30.38,10.0,North,-9999.0,-,N/A,,Clear,0,2013-06-24 20:16:00
2:36 PM,53.6,10.4,18,30.39,10.0,North,-9999.0,-,N/A,,Clear,0,2013-06-24 20:36:00
2:56 PM,53.6,8.6,16,30.38,10.0,North,-9999.0,-,N/A,,Clear,0,2013-06-24 20:56:00
3:16 PM,53.6,8.6,16,30.39,5.0,North,-9999.0,-,N/A,,Haze,0,2013-06-24 21:16:00
3:36 PM,51.8,8.6,18,30.40,7.0,North,-9999.0,-,N/A,,Clear,0,2013-06-24 21:36:00
3:56 PM,51.8,6.8,16,30.39,5.0,North,-9999.0,-,N/A,,Haze,0,2013-06-24 21:56:00
4:16 PM,51.8,8.6,18,30.38,5.0,North,-9999.0,-,N/A,,Haze,0,2013-06-24 22:16:00
4:36 PM,51.8,8.6,18,30.38,2.5,North,-9999.0,-,N/A,,Haze,0,2013-06-24 22:36:00
4:56 PM,53.6,8.6,16,30.38,4.0,North,-9999.0,-,N/A,,Haze,0,2013-06-24 22:56:00
5:16 PM,51.8,8.6,18,30.38,4.0,North,-9999.0,-,N/A,,Haze,0,2013-06-24 23:16:00
5:36 PM,50.0,8.6,19,30.38,4.0,North,-9999.0,-,N/A,,Haze,0,2013-06-24 23:36:00
5:56 PM,51.8,8.6,18,30.38,5.0,North,-9999.0,-,N/A,,Haze,0,2013-06-24 23:56:00
6:16 PM,50.0,8.6,19,30.38,5.0,North,-9999.0,-,N/A,,Haze,0,2013-06-25 00:16:00
6:36 PM,51.8,8.6,18,30.40,4.0,North,-9999.0,-,N/A,,Haze,0,2013-06-25 00:36:00
6:56 PM,51.8,10.4,19,30.40,7.0,North,-9999.0,-,N/A,,Clear,0,2013-06-25 00:56:00
7:16 PM,48.2,8.6,20,30.40,5.0,North,-9999.0,-,N/A,,Haze,0,2013-06-25 01:16:00
7:36 PM,48.2,8.6,20,30.39,5.0,North,-9999.0,-,N/A,,Haze,0,2013-06-25 01:36:00
7:56 PM,48.2,8.6,20,30.39,5.0,North,-9999.0,-,N/A,,Haze,0,2013-06-25 01:56:00
8:16 PM,46.4,8.6,22,30.39,7.0,North,-9999.0,-,N/A,,Clear,0,2013-06-25 02:16:00
8:36 PM,46.4,6.8,20,30.39,5.0,North,-9999.0,-,N/A,,Haze,0,2013-06-25 02:36:00
8:56 PM,46.4,8.6,22,30.39,7.0,North,-9999.0,-,N/A,,Clear,0,2013-06-25 02:56:00
9:16 PM,46.4,8.6,22,30.39,7.0,North,-9999.0,-,N/A,,Clear,0,2013-06-25 03:16:00
9:36 PM,46.4,8.6,22,30.40,7.0,North,-9999.0,-,N/A,,Clear,0,2013-06-25 03:36:00
9:56 PM,46.4,8.6,22,30.41,7.0,North,-9999.0,-,N/A,,Clear,0,2013-06-25 03:56:00
10:16 PM,46.4,8.6,22,30.41,7.0,North,-9999.0,-,N/A,,Clear,0,2013-06-25 04:16:00
10:36 PM,46.4,10.4,23,30.40,7.0,North,-9999.0,-,N/A,,Clear,0,2013-06-25 04:36:00
10:56 PM,44.6,10.4,25,30.41,7.0,North,-9999.0,-,N/A,,Clear,0,2013-06-25 04:56:00
11:16 PM,44.6,10.4,25,30.41,7.0,North,-9999.0,-,N/A,,Clear,0,2013-06-25 05:16:00
11:36 PM,44.6,10.4,25,30.41,7.0,North,-9999.0,-,N/A,,Clear,0,2013-06-25 05:36:00
11:56 PM,44.6,10.4,25,30.40,7.0,North,-9999.0,-,N/A,,Clear,0,2013-06-25 05:56:00